{"data":{"norad_id":64954,"intl_designator":"2025-158Y","name":"STARLINK-34761","alt_names":[],"object_type":"PAYLOAD","status":"ACTIVE","operator":null,"country":"US","launch_date":"2025-07-27","launch_site_code":"AFWTR","launch_vehicle":null,"mission":null,"orbit_class":"UNKNOWN","rcs_meters":null,"size_class":null,"mass_kg":null,"dimensions":null,"purposes":["comms"],"wikipedia_slug":null,"has_3d_model":false,"image_url":null,"decayed_at":null,"tle_current":{"epoch":"2026-09-20T11:58:25.885344Z","epoch_age_seconds":124419,"freshness":"FRESH","line1":"1 64954U 25158Y   26263.49891071  .00012537  00000+0  38991-3 0  9997","line2":"2 64954  97.2846 121.7684 0002297  89.7318 270.4188 15.33452494 64708","mean_motion":15.33452494,"eccentricity":0.0002297,"inclination_deg":97.2846,"raan_deg":121.7684,"arg_perigee_deg":89.7318,"mean_anomaly_deg":270.4188,"bstar":0.00038991,"rev_number":6470,"period_min":93.905745736131,"perigee_km":463.94888948291,"apogee_km":467.09286591192,"semimajor_km":6843.6578776974,"source":"CELESTRAK","updated_at":"2026-09-21T09:00:35.490823Z"}}}